Overview Statistics Trail Chart Weather Telemetry Raw packets
 

This is the latest recevied weather packets stored in our database for station/object VE1DX. If no packets are shown the sender has not sent any weather packets the latest 10 day(s).

<< 73 74 75 76 77 78 79 >>
Time Temp. Humidity Pressure Rain* Wind** Luminosity Snow
1788109817 24.44° C 69% 1014.6 hPa 0 mm - - -
1788109516 24.44° C 70% 1014.6 hPa 0 mm - - -
1788109217 23.89° C 69% 1014.6 hPa 0 mm - - -
1788108916 23.89° C 69% 1014.7 hPa 0 mm - - -
1788108617 23.89° C 68% 1014.9 hPa 0 mm - - -
1788108317 23.89° C 68% 1014.8 hPa 0 mm - - -
1788108016 23.89° C 66% 1014.9 hPa 0 mm - - -
1788107717 23.89° C 65% 1015 hPa 0 mm - - -
1788107416 23.89° C 65% 1015.1 hPa 0 mm - - -
1788107117 23.89° C 65% 1015.2 hPa 0 mm - - -
1788106817 23.89° C 64% 1015.2 hPa 0 mm - - -
1788106522 23.89° C 65% 1015.2 hPa 0 mm - - -
1788106217 23.89° C 67% 1015.4 hPa 0 mm - - -
1788105916 23.89° C 63% 1015.4 hPa 0 mm - - -
1788105617 23.89° C 62% 1015.5 hPa 0 mm - - -
1788105317 23.89° C 62% 1015.6 hPa 0 mm - - -
1788105017 23.89° C 62% 1015.8 hPa 0 mm - - -
1788104716 23.89° C 62% 1015.9 hPa 0 mm - - -
1788104416 23.89° C 62% 1016 hPa 0 mm - - -
1788104116 23.33° C 63% 1016.1 hPa 0 mm - - -
1788103817 23.33° C 63% 1016.1 hPa 0 mm - - -
1788103516 23.33° C 62% 1016.2 hPa 0 mm - - -
1788103216 23.33° C 61% 1016.3 hPa 0 mm - - -
1788102917 23.33° C 61% 1016.3 hPa 0 mm - - -
1788102616 23.33° C 62% 1016.5 hPa 0 mm - - -

* Rain latest hour (hover to see other rain measurements)
** Current wind speed in m/s (hover to see current wind gust speed)